Tracking 17694 objects as of 27-May-2016
HD Live streaming from Space Station
objects crossing your sky now

CRRES DEB (CANISTER)

Track CRRES DEB (CANISTER) now!


NORAD ID: 21590
Int'l Code: 1990-065F
Perigee: 359.1 km
Apogee: 31,245.3 km
Inclination: 20.0 °
Period: 547.6 minutes
Semi major axis: 22173 km
RCS: 0.1267 m2 (medium)
Launch date: July 25, 1990
Source: United States (US)
Launch site: AIR FORCE EASTERN TEST RANGE (AFETR)

Note: This is SATELLITE DEBRIS
Your satellite tracking list
Your tracking list is empty





NASA's NSSDC Master Catalog

Two Line Element Set (TLE):
1 21590U 90065F   16147.57805709 -.00000123  00000-0  10075-3 0  9990
2 21590  20.0310 226.3469 6964753 119.1315 326.3899  2.62941697223292
Source of the keplerian elements: AFSPC

N2YO: 860